Regional Weather Roundup
Issued by NWS

Home | Current Version | Previous Version | Text Only | Print | Product List | Glossary Off
Versions: 1 2 3 4 5 6 7 8 9 10 11 12 13 14 15 16 17 18 19 20 21 22 23 24 25 26 27 28 29 30 31 32 33 34 35 36 37 38 39 40 41 42 43 44 45 46 47 48 49 50

000
ASUS45 KABQ 181501
RWRNM
NEW MEXICO REGIONAL WEATHER ROUNDUP
NATIONAL WEATHER SERVICE ALBUQUERQUE NM
800 AM MST WED JAN 18 2017

NOTE: "FAIR" MEANS FEW OR NO CLOUDS BELOW 12,000 FEET AGL WITH NO
       SIGNIFICANT WEATHER OR OBSTRUCTIONS TO VISION.

      THIS PRODUCT IS RELEASED AS TWO VERSIONS.  ONE VERSION NEAR
      THE TOP OF THE HOUR CONTAINING PRELIMINARY DATA FROM ALBUQUERQUE
      AND OTHER STATIONS.  A FINAL VERSION WITH ADDITIONAL DATA IS
      ISSUED ABOUT 10 MINUTES AFTER THE HOUR.

NMZ501-503-504-510>518-181600-
NORTHWEST PLATEAU/NORTHCENTRAL MOUNTAINS

CITY           SKY/WX    TMP DP  RH WIND       PRES   REMARKS
FARMINGTON     FOG       28  26  92 N6        30.12F VSB<1/4 WCI  22
LOS ALAMOS     CLOUDY    31  27  87 CALM      30.10S
SANTA FE       FOG       28  28 100 CALM      30.09S VSB 3/4
TAOS           CLOUDY    28  21  74 N3        30.09F
ANGEL FIRE     CLOUDY     9   7  90 NE3       30.07S

$$
NMZ402-403-502-505>509-181600-
WESTCENTRAL MOUNTAINS/SOUTHWEST MOUNTAINS

CITY           SKY/WX    TMP DP  RH WIND       PRES   REMARKS
GALLUP         FOG       25  24  96 E3        30.15S VSB<1/4
GRANTS         CLOUDY    30  30  99 NW6       30.15S WCI  24
SILVER CITY    FAIR      32  30  94 N8        30.15S WCI  25

$$
NMZ407-409-411-412-181600-
SOUTHERN DESERTS

CITY           SKY/WX    TMP DP  RH WIND       PRES   REMARKS
DEMING         FAIR      32  31  96 W3        30.16R
LAS CRUCES     FAIR      35  34  98 SW5       30.16S FOG     WCI  30
HOLLOMAN AFB   FOG       32  32 100 CALM      30.19R VSB<1/4
ALAMOGORDO     FAIR      36  36 100 S6        30.15S FOG     WCI  31
T OR C         FOG       34  33  96 SW7       30.13R VSB<1/4 WCI  28

$$
NMZ519>523-181600-
CENTRAL VALLEYS/CENTRAL HIGHLANDS

CITY           SKY/WX    TMP DP  RH WIND       PRES   REMARKS
ALBUQUERQUE    FAIR      38  34  85 CALM      30.12F
DOUBLE EAGLE   CLOUDY    34  32  93 CALM      30.12F
MORIARTY ARPT  FAIR      32  29  90 W7        30.10S WCI  26
CLINES CORNERS FAIR      27  25  92 W17       30.06F WCI  14
BELEN          FOG       34  34 100 E3        30.13S VSB<1/4
SOCORRO        CLOUDY    37  36  98 S6        30.14S WCI  32

$$
NMZ524>526-539-540-181600-
SOUTHCENTRAL MOUNTAINS

CITY           SKY/WX    TMP DP  RH WIND       PRES   REMARKS
RUIDOSO        NOT AVBL

$$
NMZ527>531-181600-
NORTHEAST HIGHLANDS/NORTHEAST PLAINS

CITY           SKY/WX    TMP DP  RH WIND       PRES   REMARKS
LAS VEGAS      FAIR      25  21  85 SW3       30.00F
RATON          CLOUDY    27  24  89 CALM      29.97F
CLAYTON        FAIR      35  34  96 SW8       29.95F WCI  29

$$
NMZ532>537-181600-
EASTCENTRAL PLAINS

CITY           SKY/WX    TMP DP  RH WIND       PRES   REMARKS
TUCUMCARI      FAIR      37  35  92 W10       30.00F WCI  30
CANNON AFB     FOG       38  38 100 SW13      30.07S VSB 1/2 WCI  30
CLOVIS AIRPORT CLOUDY    37  36  93 SW14      30.06F VSB 1/4 WCI  29

$$
NMZ028-029-538-181600-
SOUTHEAST PLAINS

CITY           SKY/WX    TMP DP  RH WIND       PRES   REMARKS
ROSWELL        FOG       37  35  92 S8        30.10F VSB<1/4 WCI  31
ARTESIA        FOG       37  37 100 SW6       30.13S VSB<1/4 WCI  33
CARLSBAD       FAIR      38  38 100 CALM      30.12R
HOBBS          FOG       37  37 100 S3        30.13R VSB 0


$$



USA.gov is the U.S. government's official web portal to all federal, state and local government web resources and services.